Weather History for Hobart, OK

Change the Weather History Date:

Tuesday, November 6, 2012

  Actual Average Record
Temperature  
Mean Temperature 56 °F -  
Max Temperature 79 °F 59 °F 79 °F (2012)
Min Temperature 34 °F 41 °F 30 °F (2003)
Degree Days  
Heating Degree Days 8    
Growing Degree Days 6 (Base 50)    
Moisture  
Dew Point 34 °F    
Average Humidity 51    
Maximum Humidity 79    
Minimum Humidity 21    
Precipitation  
Precipitation 0.00 in - - ()
Sea Level Pressure  
Sea Level Pressure 30.13 in    
Wind  
Wind Speed 7 mph (NNW)    
Max Wind Speed 16 mph    
Max Gust Speed 21 mph    
Visibility 10 miles    
Events      
Averages and records for this station are not official NWS values.
T = Trace of Precipitation, MM = Missing Value Source: NWS Daily Summary

Daily Weather History Graph

Daily Weather History Graph

Search for Another Location

Airport:

Trip Planner

Search our weather history database for the weather conditions in past years. The results will help you decide how hot, cold, wet, or windy it might be!

Date:

Astronomy

Nov. 06, 2012 Rise Set
Actual Time 7:02 AM CST 5:36 PM CST
Civil Twilight 6:35 AM CST 6:03 PM CST
Nautical Twilight 6:05 AM CST 6:33 PM CST
Astronomical Twilight 5:36 AM CST 7:03 PM CST
Moon No Moon Rise 12:57 PM CST (11/6)
Length of Visible Light 11h 27m
Length of Day
10h 34m
Waning Gibbous, 53% of the Moon is Illuminated
Nov 6
Waning Gibbous
Nov 6
Last Quarter
Nov 13
New
Nov 20
First Quarter
Nov 28
Full

Hourly Weather History & Observations

Time (CST) Temp. Windchill Dew Point Humidity Pressure Visibility Wind Dir Wind Speed Gust Speed Precip Events Conditions
12:53 AM 39.0 °F 36.8 °F 28.9 °F 67% 30.13 in 10.0 mi WNW 3.5 mph - N/A   Clear
1:53 AM 41.0 °F 37.1 °F 32.0 °F 70% 30.13 in 10.0 mi NNW 5.8 mph - N/A   Clear
2:53 AM 39.0 °F 35.7 °F 30.9 °F 73% 30.14 in 10.0 mi NNW 4.6 mph - N/A   Clear
3:53 AM 37.0 °F 33.3 °F 30.9 °F 79% 30.14 in 10.0 mi West 4.6 mph - N/A   Clear
4:53 AM 34.0 °F 28.0 °F 28.0 °F 79% 30.14 in 10.0 mi West 6.9 mph - N/A   Clear
5:53 AM 36.0 °F 31.1 °F 28.9 °F 76% 30.14 in 10.0 mi West 5.8 mph - N/A   Clear
6:53 AM 36.0 °F 31.1 °F 28.9 °F 76% 30.14 in 10.0 mi SW 5.8 mph - N/A   Clear
7:53 AM 39.9 °F - 30.9 °F 70% 30.15 in 10.0 mi Calm Calm - N/A   Clear
8:53 AM 51.1 °F - 37.0 °F 59% 30.15 in 10.0 mi SW 11.5 mph - N/A   Clear
9:53 AM 55.9 °F - 37.0 °F 49% 30.15 in 10.0 mi WSW 10.4 mph - N/A   Clear
10:53 AM 63.0 °F - 35.1 °F 35% 30.12 in 10.0 mi West 12.7 mph - N/A   Clear
11:53 AM 66.9 °F - 35.1 °F 31% 30.12 in 10.0 mi WNW 8.1 mph - N/A   Clear
12:53 PM 73.0 °F - 35.1 °F 25% 30.09 in 10.0 mi NNW 9.2 mph - N/A   Clear
1:53 PM 78.1 °F - 35.1 °F 21% 30.06 in 10.0 mi NNE 13.8 mph 20.7 mph N/A   Clear
2:53 PM 79.0 °F - 36.0 °F 21% 30.05 in 10.0 mi NNE 16.1 mph - N/A   Clear
3:53 PM 77.0 °F - 36.0 °F 23% 30.07 in 10.0 mi NNE 13.8 mph - N/A   Clear
4:53 PM 73.0 °F - 37.0 °F 27% 30.09 in 10.0 mi ENE 13.8 mph - N/A   Clear
5:53 PM 63.0 °F - 35.1 °F 35% 30.12 in 10.0 mi North - - N/A   Clear
6:53 PM 57.9 °F - 35.1 °F 42% 30.15 in 10.0 mi East 5.8 mph - N/A   Clear
7:53 PM 53.1 °F - 34.0 °F 48% 30.16 in 10.0 mi East 8.1 mph - N/A   Clear
8:53 PM 53.1 °F - 34.0 °F 48% 30.15 in 10.0 mi East 6.9 mph - N/A   Clear
9:53 PM 50.0 °F - 35.1 °F 57% 30.16 in 10.0 mi ENE 6.9 mph - N/A   Clear
10:53 PM 50.0 °F - 35.1 °F 57% 30.16 in 10.0 mi ENE 4.6 mph - N/A   Clear
11:53 PM 46.9 °F - 34.0 °F 61% 30.16 in 10.0 mi Calm Calm - N/A   Clear